TimeCST,TemperatureF,Dew PointF,Humidity,Sea Level PressureIn,VisibilityMPH,Wind Direction,Wind SpeedMPH,Gust SpeedMPH,PrecipitationIn,Events,Conditions,WindDirDegrees,DateUTC
12:53 AM,32.0,28.9,88,30.42,9.0,Calm,Calm,-,N/A,,Clear,0,2013-01-19 06:53:00
1:53 AM,32.0,28.9,88,30.42,10.0,Calm,Calm,-,N/A,,Clear,0,2013-01-19 07:53:00
2:53 AM,30.9,28.9,92,30.41,9.0,Calm,Calm,-,N/A,,Clear,0,2013-01-19 08:53:00
3:53 AM,30.9,28.0,89,30.39,10.0,Calm,Calm,-,N/A,,Clear,0,2013-01-19 09:53:00
4:53 AM,30.0,28.0,92,30.40,9.0,Calm,Calm,-,N/A,,Clear,0,2013-01-19 10:53:00
5:53 AM,30.0,28.0,92,30.40,10.0,Calm,Calm,-,N/A,,Clear,0,2013-01-19 11:53:00
6:53 AM,30.0,28.0,92,30.41,9.0,Calm,Calm,-,N/A,,Clear,0,2013-01-19 12:53:00
7:53 AM,33.1,30.9,92,30.40,10.0,Calm,Calm,-,N/A,,Clear,0,2013-01-19 13:53:00
8:53 AM,39.0,34.0,82,30.41,10.0,Calm,Calm,-,N/A,,Clear,0,2013-01-19 14:53:00
9:53 AM,48.0,37.9,68,30.42,10.0,Calm,Calm,-,N/A,,Clear,0,2013-01-19 15:53:00
10:53 AM,55.0,36.0,49,30.39,10.0,ESE,5.8,-,N/A,,Clear,120,2013-01-19 16:53:00
11:53 AM,57.9,37.0,46,30.35,10.0,SSE,5.8,-,N/A,,Clear,150,2013-01-19 17:53:00
12:53 PM,62.1,39.9,44,30.30,10.0,Calm,Calm,-,N/A,,Clear,0,2013-01-19 18:53:00
1:53 PM,63.0,41.0,45,30.28,10.0,South,9.2,16.1,N/A,,Clear,190,2013-01-19 19:53:00
2:53 PM,62.1,41.0,46,30.26,9.0,South,4.6,-,N/A,,Clear,190,2013-01-19 20:53:00
3:53 PM,62.1,42.1,48,30.26,10.0,South,3.5,-,N/A,,Clear,190,2013-01-19 21:53:00
4:53 PM,59.0,44.1,58,30.26,10.0,Calm,Calm,-,N/A,,Clear,0,2013-01-19 22:53:00
5:53 PM,53.1,45.0,74,30.27,10.0,Calm,Calm,-,N/A,,Clear,0,2013-01-19 23:53:00
6:53 PM,48.9,45.0,86,30.27,10.0,Calm,Calm,-,N/A,,Clear,0,2013-01-20 00:53:00
7:53 PM,48.0,44.1,86,30.28,10.0,Calm,Calm,-,N/A,,Clear,0,2013-01-20 01:53:00
8:53 PM,45.0,42.1,90,30.27,10.0,Calm,Calm,-,N/A,,Clear,0,2013-01-20 02:53:00
9:53 PM,43.0,41.0,93,30.27,10.0,Calm,Calm,-,N/A,,Clear,0,2013-01-20 03:53:00
10:53 PM,41.0,37.9,89,30.28,9.0,Calm,Calm,-,N/A,,Clear,0,2013-01-20 04:53:00
11:53 PM,39.9,37.0,89,30.27,10.0,Calm,Calm,-,N/A,,Clear,0,2013-01-20 05:53:00